This demonstration page uses our WeatherBlox Daily Observations layout. Learn more.

39.01783, -85.05884

Hourly Observations for August 14, 2019

Temp ( °F °C ) Dew Point ( °F °C ) Humidity (%) Winds ( mph kmh ) Pressure ( in mb ) Visibility ( mi km ) Precip ( " mm )
12:52 am 00:52 Partly Cloudy 74 23.3 69 20.6 85 85 WNW 8 13 29.85 1011 10 16.09344 0 0
1:52 am 01:52 Mostly Cloudy 74 23.3 69 20.6 85 85 WNW 8 13 29.85 1011 10 16.09344 0 0
2:52 am 02:52 Mostly Cloudy 75 23.9 69 20.6 82 82 NW 6 9 29.85 1011 10 16.09344 0 0
3:52 am 03:52 Clear 72 22.2 69 20.6 91 91 W 5 7 29.85 1011 7 11.265408 0 0
4:52 am 04:52 Clear with Mist and Fog 70 21.1 68 20 93 93 W 5 7 29.85 1011 5 8.04672 0 0
5:52 am 05:52 Mostly Clear with Mist and Fog 70 21.1 67 19.4 90 90 WNW 8 13 29.85 1011 5 8.04672 0 0
6:52 am 06:52 Sunny with Mist and Fog 70 21.1 67 19.4 90 90 W 5 7 29.88 1012 4 6.437376 0 0
7:28 am 07:28 Partly Cloudy with Mist and Fog 70 21.1 67 19.4 90 90 WNW 5 7 29.91 1013 2 3.218688 0 0
7:48 am 07:48 Mostly Cloudy with Mist and Fog 70 21 68 20 94 94 Calm 29.91 1013 2 3.218688 0 0
7:52 am 07:52 Mostly Cloudy with Mist and Fog 70 21.1 68 20 93 93 Calm 29.88 1012 2 3.218688 0 0
8:29 am 08:29 Cloudy with Mist and Fog 72 22.2 69 20.6 91 91 WNW 3 6 29.91 1013 1 1.609344 0 0
8:52 am 08:52 Cloudy with Mist and Fog 72 22.2 69 20.6 91 91 N 3 6 29.88 1012 1 1.609344 0 0
9:46 am 09:46 Cloudy with Haze 73 23 70 21 89 89 Calm 29.91 1013 2 3.218688 0 0
9:52 am 09:52 Cloudy with Mist and Fog 74 23.3 70 21.1 88 88 Calm 29.91 1013 2 3.218688 0 0
10:06 am 10:06 Cloudy with Haze 75 23.9 70 21.1 84 84 Calm 29.94 1014 2 3.218688 0 0
10:17 am 10:17 Cloudy with Haze 76 24.4 70 21.1 82 82 N 3 6 29.94 1014 2 3.218688 0 0
10:21 am 10:21 Cloudy with Haze 78 25.6 70 21.1 76 76 N 3 6 29.94 1014 6 9.656064 0 0
10:52 am 10:52 Mostly Cloudy with Mist and Fog 79 26.1 70 21.1 74 74 Calm 29.91 1013 5 8.04672 0 0
10:56 am 10:56 Mostly Cloudy with Mist and Fog 80 26.7 70 21.1 71 71 Calm 29.94 1014 6 9.656064 0 0
11:52 am 11:52 Mostly Cloudy 81 27.2 69 20.6 67 67 NW 5 7 29.91 1013 9 14.484096 0 0
11:54 am 11:54 Partly Cloudy 82 27.8 69 20.6 65 65 VRB 3 6 29.91 1013 9 14.484096 0 0
12:52 pm 12:52 Mostly Cloudy 82 27.8 68 20 63 63 NW 6 9 29.91 1013 10 16.09344 0 0
1:52 pm 13:52 Mostly Cloudy 85 29.4 67 19.4 55 55 N 8 13 29.88 1012 10 16.09344 0 0
2:52 pm 14:52 Mostly Cloudy 88 31.1 65 18.3 46 46 Calm 29.88 1012 10 16.09344 0 0
3:52 pm 15:52 Mostly Cloudy 88 31.1 63 17.2 43 43 VRB 3 6 29.88 1012 10 16.09344 0 0
4:52 pm 16:52 Partly Cloudy 90 32.2 62 16.7 39 39 W 10 17 29.85 1011 10 16.09344 0 0
5:52 pm 17:52 Mostly Sunny 88 31.1 62 16.7 42 42 WSW 7 11 29.85 1011 10 16.09344 0 0
6:52 pm 18:52 Mostly Sunny 86 30 64 17.8 48 48 SW 3 6 29.83 1010 10 16.09344 0 0
7:52 pm 19:52 Mostly Sunny 85 29.4 63 17.2 48 48 WNW 8 13 29.85 1011 10 16.09344 0 0
8:52 pm 20:52 Mostly Clear 80 26.7 63 17.2 56 56 WNW 7 11 29.85 1011 10 16.09344 0 0
9:52 pm 21:52 Mostly Clear 77 25 63 17.2 62 62 Calm 29.88 1012 10 16.09344 0 0
10:52 pm 22:52 Partly Cloudy 75 23.9 63 17.2 66 66 W 6 9 29.88 1012 10 16.09344 0 0
11:52 pm 23:52 Clear 74 23.3 63 17.2 69 69 W 7 11 29.88 1012 10 16.09344 0 0

Powered by AerisWeather